Location: Haulchin
(50.3172°N, 3.4360°E)
Time: 21:28:15
(UTC+00:00)

Okean 2 - Pass Details

Date: 23 May 2024
Orbit: 540 x 553 km, 82.5° (Epoch: 14 June)

Event Time Altitude Azimuth Distance (km) Brightness Sun altitude
Exits shadow 00:50:35 30° 152° (SSE) 997 4.2 -17.5°
Maximum altitude 00:52:12 49° 95° (E) 706 3.9 -17.4°
Drops below altitude 10° 00:56:04 10° 20° (NNE) 1,816 7.3 -17.2°
Sets 00:58:16 0° 15° (NNE) 2,714 8.6 -17.1°
